Home > Weather > Delbrück > Past weeks

Flag for Germany Past Weather in Delbrück, North Rhine-Westphalia, Germany — Yesterday and Last 2 Weeks

Now
66 °F

Clear.


Feels Like: 66 °F
Forecast: 60 / 83 °F
Wind: 5 mph from Southeast

Location: Paderborn / Lippstadt

Current Time: Jul 23, 2016 at 11:25:02 PM

Latest Report: Jul 23, 2016 at 10:50 PM


Visibility: 10 mi

Pressure: 30.12 "Hg

Humidity: 88%

Dew Point: 63 °F

Location of DelbrückLocation

Past Weather in Delbrück — Graph

°F

Delbrück Temperature Yesterday

Maximum temperature yesterday: 81 °F (at 11:20 AM)
Minimum temperature yesterday: 63 °F (at 5:50 AM)
Average temperature yesterday: 69 °F

High & Low Weather Summary for the Past Weeks

 TemperatureHumidityPressure
High91 °F (Jul 20, 5:20 PM)100% (Jul 14, 5:20 AM)30.27 "Hg (Jul 14, 5:20 AM)
Low50 °F (Jul 14, 6:50 AM)23% (Jul 20, 5:20 PM)29.77 "Hg (Jul 10, 9:50 PM)
Average67 °F68%30.05 "Hg
* Reported Jul 8 9:20 PM — Jul 23 9:50 PM, Delbrück, Weather by CustomWeather, © 2016

Note: Actual official high and low records may vary slightly from our data, if they occured in-between our weather recording intervals... More about our weather records

Advertising

Delbrück Weather History for the Previous 24 Hours

Scroll right to see more
 ConditionsComfort  
Time TempWeatherWind HumidityBarometerVisibility
9:50 PM
Sat, Jul 23
66 °FSunny.2 mph88%30.09 "Hg10 mi
9:20 PM66 °FSunny.1 mph88%30.09 "Hg10 mi
8:50 PM66 °FSunny.1 mph88%30.09 "Hg10 mi
8:20 PM66 °FSunny.1 mph88%30.09 "Hg10 mi
7:50 PM68 °FSunny.1 mph83%30.09 "Hg10 mi
7:20 PM68 °FSunny.2 mph78%30.09 "Hg10 mi
6:50 PM68 °FSunny.2 mph78%30.09 "Hg10 mi
6:20 PM68 °FSunny.3 mph78%30.09 "Hg10 mi
5:50 PM70 °FPassing clouds.3 mph69%30.09 "HgN/A
5:20 PM70 °FPassing clouds.5 mph69%30.09 "HgN/A
4:50 PM70 °FPassing clouds.7 mph69%30.09 "HgN/A
4:20 PM70 °FSunny.8 mph73%30.09 "Hg10 mi
3:50 PM68 °FSunny.8 mph83%30.09 "Hg10 mi
3:20 PM68 °FPassing clouds.6 mph83%30.09 "HgN/A
2:50 PM68 °FLight rain. Partly sunny.7 mph83%30.09 "Hg6 mi
2:20 PM68 °FSprinkles. Partly sunny.3 mph83%30.09 "Hg6 mi
1:50 PM68 °FClear.5 mph78%30.09 "Hg6 mi
1:20 PM68 °FClear.3 mph78%30.09 "Hg6 mi
12:50 PM66 °FClear.3 mph78%30.09 "Hg6 mi
12:20 PM66 °FLight rain. Partly sunny.6 mph83%30.09 "Hg5 mi
11:50 AM66 °FLight rain. Clear.6 mph88%30.09 "Hg5 mi
11:20 AM64 °FClear.7 mph88%30.09 "Hg5 mi
10:50 AM64 °FLight rain. Clear.8 mph88%30.09 "Hg5 mi
10:20 AM66 °FLight rain. Clear.6 mph83%30.07 "Hg5 mi
9:50 AM66 °FPassing clouds.5 mph88%30.07 "Hg6 mi
9:20 AM66 °FPassing clouds.5 mph88%30.07 "Hg6 mi
8:50 AM64 °FClear.2 mph94%30.07 "Hg6 mi
8:20 AM64 °FClear.2 mph94%30.04 "Hg6 mi
7:50 AM66 °FClear.3 mph88%30.04 "Hg6 mi
7:20 AM63 °FClear.2 mph94%30.04 "Hg6 mi
6:50 AM64 °FClear.3 mph88%30.04 "Hg6 mi
6:20 AM63 °FClear.3 mph94%30.04 "Hg4 mi
5:50 AM63 °FClear.3 mph94%30.04 "Hg4 mi
5:20 AM63 °FClear.3 mph94%30.04 "Hg4 mi
4:50 AM63 °FClear.6 mph94%30.04 "Hg4 mi
4:20 AM63 °FClear.2 mph94%30.04 "Hg4 mi
3:20 AM61 °FClear.2 mph100%30.04 "Hg10 mi
2:50 AM61 °FClear.3 mph94%30.04 "Hg10 mi
2:20 AM63 °FClear.5 mph94%30.07 "Hg10 mi
1:50 AM63 °FClear.2 mph94%30.07 "Hg6 mi
1:20 AM63 °FClear.2 mph94%30.07 "Hg4 mi
12:50 AM61 °FClear.3 mph100%30.07 "Hg6 mi
12:20 AM63 °FClear.1 mph94%30.04 "Hg6 mi
11:50 PM
Fri, Jul 22
63 °FClear.5 mph94%30.04 "Hg6 mi
11:20 PM63 °FClear.1 mph100%30.07 "Hg10 mi
Weather by CustomWeather, © 2016

See weather overviewHow to use our weather pages